Pagrindinis puslapis
METAR-TAF:

METAR-TAF

Oro uostai :

Pontianakas, Indonezija

platuma: 00-09S, ilguma: 109-24E, Aukštis: 3 m

Dabartinis oras

Ataskaita buvo paskelbta 25 minutes, ne 02:00 UTC
Vėjas 4 kt iš Rytų/Šiaurės Rytų
Temperatūra 28°C
Drėgmė 84%
Slėgis 1012 hPa
Matomumas 10 km arba daugiau
Mažai debesys ne aukštis 1200 ft

METAR: WIOO 140200Z 07004KT 9999 FEW012 28/25 Q1012 NOSIG

Laikas: 09:25 (02:25 UTC)


TAF: trūkstamas

Orai ataskaitas ir orų prognozės (METAR, TAF).

turimą stotys yra geltonos ir raudonos taškus žemėlapyje.

Perkelti pele per norėdami pamatyti stoties vardą.

Tada spustelėkite, norėdami matyti oro stebėjimo ir prognozės.

Norėdami pakeisti žemėlapį: spustelėkite ant žalios mygtukų su juodo kryžiaus žemyn,; žalią mygtuką su brūkšneliu, jei norite nutolinti; arba žalių rodyklių gretimoms žemėlapius.


METAR-TAF: